ONEWEB-0625 (55166 NORAD) Tracking and Keplerian Element Data

This shows tracking and keplerian element data for the satellite.

Feedback or suggestion? Click here.




ElementValue
Catalog55166
NameONEWEB-0625
Epoch Orbit1119
Epoch Day84.88456964
Epoch Year2023
RAAN253.6906
Inclination86.6209
Eccentricity0.0010922
Argument of Perigee327.1052
Mean Anonmoly32.948
Mean Motion14.65719356
Decay Rate1.641E-05
L11 55166U 23004AC 23084.88456964 .00001641 00000+0 29711-3 0 9993
L22 55166 86.6209 253.6906 0010922 327.1052 32.9480 14.65719356 11196



Live tracking and technical data element details for ONEWEB-0625 (NORAD 55166). ONEWEB-0625 can be tracked NOW for your location showing map with azimuth and elevation plus other details from your city location.







IsCatalogInMostPopularTable: catalog: 55166, numindb: 11
Update: records affected: 1



GetName: 55166 ONEWEB-0625

Hit Count: updated at: Mon, 27 Mar 2023 08:00:29 GMT